Weather Roundup
Issued by NWS Chicago, IL

Home | Current Version | Previous Version | Graphics & Text | Print | Product List | Glossary On
Versions: 1 2 3 4 5 6 7 8 9 10 11 12 13 14 15 16 17 18 19 20 21 22 23 24 25 26 27 28 29 30 31 32 33 34 35 36 37 38 39 40 41 42 43 44 45 46 47 48 49 50
000
NZUS59 KLOT 222310
HRRLOT

CHICAGO AREA WEATHER ROUNDUP
NATIONAL WEATHER SERVICE CHICAGO/ROMEOVILLE IL
600 PM CDT FRI AUG 22 2014

NOTE: "FAIR" INDICATES FEW OR NO CLOUDS BELOW 12,000 FEET WITH NO
SIGNIFICANT WEATHER AND/OR OBSTRUCTIONS TO VISIBILITY.

* THESE STATIONS ARE NOT UNDER NWS QUALITY CONTROL. THEY ALSO MAY NOT
  REPORT WEATHER SUCH AS PRECIPITATION OR FOG.

ILZ005-006-012>014-019>023-230000-
NORTHEAST ILLINOIS

CITY           SKY/WX    TMP DP  RH WIND       PRES   REMARKS
OHARE          PTSUNNY   84  71  65 SW7       29.93R HX  89
MIDWAY         PTSUNNY   85  74  69 SW10      29.93S HX  92
AURORA         SUNNY     83  73  72 NW3       29.95S HX  89
LANSING*       MOSUNNY   83  72  69 W10       29.95R HX  87
JOLIET*        PTSUNNY   83  71  67 SW3       29.95S HX  88
WAUKEGAN       MOSUNNY   77  71  82 E7        29.94R
DUPAGE AIRPORT MOSUNNY   83  74  74 W9        29.94S HX  89
WHEELING       MOSUNNY   83  74  74 E6        29.95R HX  89
KANKAKEE*      MOSUNNY   83  75  78 SW6       29.97S HX  90
MORRIS*        MOSUNNY   83  74  74 CALM      29.95S HX  90
LEWIS AIRPORT* CLOUDY    81  73  76 CALM      29.95S HX  85
NORTHERLY IS     N/A     78  73  84 CALM        N/A  HX  81
$$

WIZ051-052-058>065-066-070>072-230000-
SOUTHEAST WISCONSIN

CITY           SKY/WX    TMP DP  RH WIND       PRES   REMARKS
MILWAUKEE      PTSUNNY   73  69  87 E7        29.96R
KENOSHA*       SUNNY     79  72  79 E10       29.95R HX  82
RACINE*        SUNNY     77  71  82 E7        29.97R
BURLINGTON     CLOUDY    82  74  78 E6        29.94R HX  88
WAUKESHA       MOSUNNY   81  72  74 E8        29.95S HX  84
WEST BEND      MOSUNNY   77  68  73 E6        29.96S
$$

INZ001>003-010>013-019-020-230000-
NORTHWEST INDIANA

CITY           SKY/WX    TMP DP  RH WIND       PRES   REMARKS
GARY*          PTSUNNY   86  72  62 W6        29.94S HX  92
MICHIGAN CITY* NOT AVBL
RENSSELAER*    NOT AVBL
VALPARAISO     CLOUDY    81  71  71 SW9       29.96S HX  85
$$

LMZ740>746-230000-
SOUTHERN LAKE MICHIGAN

STATION/POSITION TIME  SKY/WX   TEMP WIND        PRES    VSBY
                                AIR  DIR/SP/G
                 (UTC)          (F)  (DEG/KT/KT) (MB)    (MI)
HARRISON CRIB    2300            76  110/  7/  8   N/A
BURNHAM HARBOR   2300            77   CALM  /  3   N/A
CALUMET HARBOR   2300            84  230/  6/  9 1012.6S
BURNS HARBOR     NOT AVBL
MICHIGAN CITY    2300            79   30/  3/  3   N/A
$$

ABBREVIATIONS USED IN REMARKS
   TC - TEMPERATURE IN CELSIUS
  WCI - WIND CHILL INDEX
   HX - HEAT INDEX
  VSB - VISIBILITY
$$


USA.gov is the U.S. government's official web portal to all federal, state and local government web resources and services.